Home > Weather > Playa del Carmen > Past weeks

Flag for Mexico Weather for the Past 2 Weeks in Playa del Carmen, Quintana Roo, Mexico

Now
68 °F

Broken clouds.


Feels Like: 68 °F
Forecast: 61 / 76 °F
Wind: 9 mph from North

Location: Cozumel Civ / Mil

Current Time: Feb 8, 2016 at 12:33:36 PM

Latest Report: Feb 8, 2016 at 11:48 AM


Visibility: 8 mi

Pressure: 30.19 "Hg

Humidity: 73%

Dew point: 59 °F

Location of Playa del CarmenLocation

Historic Weather in Playa del Carmen — Graph

°F

Playa del Carmen Temperature Yesterday

Maximum temperature yesterday: 70 °F (at 2:48 PM)
Minimum temperature yesterday: 63 °F (at 7:44 AM)
Average temperature yesterday: 66 °F

High & Low Weather Summary for the Past Weeks

 TemperatureHumidityPressure
High82 °F (Feb 4, 12:47 PM)100% (Jan 24, 8:49 PM)30.22 "Hg (Jan 24, 8:49 PM)
Low55 °F (Jan 24, 10:48 PM)55% (Feb 6, 2:40 PM)29.85 "Hg (Jan 27, 4:50 PM)
Average70 °F86%30.03 "Hg
* Reported Jan 24 10:54 AM — Feb 8 10:41 AM, Playa del Carmen, Weather by CustomWeather, © 2016

Note: Actual official high and low records may vary slightly from our data, if they occured in-between our weather recording intervals... More about our weather records

Advertising

Playa del Carmen Weather History for the Previous 24 Hours

 ConditionsComfort  
Time TempWeatherWind HumidityBarometerVisibility
10:41 AM
Mon, Feb 8
68 °FBroken clouds.14 mph78%30.19 "Hg8 mi
9:49 AM66 °FPartly sunny.12 mph83%30.20 "Hg8 mi
8:47 AM64 °FPartly sunny.12 mph83%30.16 "Hg8 mi
5:49 AM63 °FPassing clouds.13 mph83%30.10 "Hg7 mi
4:50 AM63 °FPassing clouds.13 mph83%30.09 "Hg7 mi
3:48 AM63 °FPassing clouds.13 mph83%30.12 "Hg7 mi
12:45 AM64 °FPassing clouds.13 mph73%30.11 "Hg7 mi
11:40 PM
Sun, Feb 7
64 °FPassing clouds.14 mph73%30.15 "Hg7 mi
9:52 PM63 °FPassing clouds.12 mph77%30.19 "Hg7 mi
8:45 PM64 °FPassing clouds.16 mph73%30.16 "Hg7 mi
7:49 PM64 °FPartly cloudy.14 mph73%30.15 "Hg7 mi
6:51 PM64 °FPartly cloudy.9 mph73%30.11 "Hg7 mi
5:49 PM66 °FBroken clouds.15 mph64%30.12 "Hg8 mi
4:49 PM68 °FPartly sunny.15 mph64%30.10 "Hg8 mi
3:51 PM70 °FBroken clouds.12 mph60%30.12 "Hg8 mi
2:48 PM70 °FBroken clouds.16 mph60%30.12 "Hg8 mi
1:46 PM68 °FPartly sunny.14 mph64%30.14 "Hg8 mi
12:43 PM66 °FScattered clouds.14 mph73%30.13 "Hg8 mi
Weather by CustomWeather, © 2016

See weather overviewHow to use our weather pages